Station Historical Data
Daily Summary for May 11, 2012 Units:  Metric    English   Both
« Previous Day
Next Day »
Daily Weekly Monthly Yearly Custom
  High: Low: Average:
Temperature: 23.9 °C 11.3 °C 17.7 °C
Dew Point: 13.5 °C 6.5 °C 8.7 °C
Humidity: 80% 33% 58%
Wind Speed: 16.1km/h 0km/h 4.3km/h
Wind Gust: 22.5km/h - -
Wind- - East
Pressure: 1019.2 hPa 1014.8 hPa -
Precipitation: 0 mm    
Historical Graphs
 
 
Tabular Data for May 11, 2012
Time Temperature Dew Point Pressure Wind Wind Speed Wind Gust Humidity Rainfall Rate (Hourly) Conditions
00:00 15.1 °C 9.2 °C 1014.8 hPa NNW 1.6 km/h 1.6 km/h 68% 0 mm
00:01 15.1 °C 9.2 °C 1014.8 hPa North 1.6 km/h 1.6 km/h 68% 0 mm
00:06 14.9 °C 9.1 °C 1014.8 hPa NNE 3.2 km/h 3.2 km/h 68% 0 mm
00:11 14.9 °C 9.1 °C 1014.8 hPa NNE 3.2 km/h 4.8 km/h 68% 0 mm
00:16 14.9 °C 9.1 °C 1014.8 hPa Calm   3.2 km/h 68% 0 mm
00:21 14.8 °C 9.2 °C 1014.8 hPa NNE 3.2 km/h 4.8 km/h 69% 0 mm
00:26 14.8 °C 9.2 °C 1014.8 hPa NNE 1.6 km/h 3.2 km/h 69% 0 mm
00:31 14.7 °C 9.1 °C 1015.1 hPa NNE 1.6 km/h 3.2 km/h 69% 0 mm
00:36 14.7 °C 9.1 °C 1015.1 hPa NNE 1.6 km/h 4.8 km/h 69% 0 mm
00:41 14.6 °C 9.2 °C 1015.1 hPa NNE 1.6 km/h 3.2 km/h 70% 0 mm
00:46 14.5 °C 9.1 °C 1015.1 hPa NNE 3.2 km/h 4.8 km/h 70% 0 mm
00:51 14.5 °C 9.1 °C 1015.1 hPa NNE 4.8 km/h 4.8 km/h 70% 0 mm
00:56 14.4 °C 9.1 °C 1015.1 hPa NE 3.2 km/h 4.8 km/h 70% 0 mm
01:01 14.4 °C 9 °C 1015.1 hPa NE 1.6 km/h 4.8 km/h 70% 0 mm
01:06 14.3 °C 8.9 °C 1015.1 hPa North 3.2 km/h 4.8 km/h 70% 0 mm
01:11 14.3 °C 8.9 °C 1015.1 hPa NNE 3.2 km/h 6.4 km/h 70% 0 mm
01:16 14.2 °C 8.8 °C 1015.1 hPa NE 3.2 km/h 4.8 km/h 70% 0 mm
01:21 14.2 °C 9.1 °C 1015.1 hPa North 3.2 km/h 6.4 km/h 71% 0 mm
01:26 14.2 °C 9 °C 1015.1 hPa NNE 4.8 km/h 6.4 km/h 71% 0 mm
01:31 14.1 °C 8.9 °C 1015.1 hPa NE 4.8 km/h 4.8 km/h 71% 0 mm
01:36 14 °C 8.8 °C 1015.1 hPa NE 4.8 km/h 8 km/h 71% 0 mm
01:41 14 °C 8.8 °C 1015.1 hPa NNE 3.2 km/h 8 km/h 71% 0 mm
01:47 13.9 °C 8.8 °C 1015.1 hPa NNE 1.6 km/h 6.4 km/h 71% 0 mm
01:52 13.9 °C 8.7 °C 1015.1 hPa NE 4.8 km/h 6.4 km/h 71% 0 mm
01:57 13.9 °C 8.7 °C 1015.1 hPa NNE 3.2 km/h 9.7 km/h 71% 0 mm
02:02 13.8 °C 8.6 °C 1015.1 hPa NNE 3.2 km/h 4.8 km/h 71% 0 mm
02:07 13.7 °C 8.6 °C 1015.1 hPa NNE 4.8 km/h 6.4 km/h 71% 0 mm
02:12 13.7 °C 8.5 °C 1015.1 hPa NE 3.2 km/h 4.8 km/h 71% 0 mm
02:17 13.6 °C 8.4 °C 1015.1 hPa NE 4.8 km/h 6.4 km/h 71% 0 mm
02:22 13.6 °C 8.4 °C 1015.5 hPa NE 1.6 km/h 3.2 km/h 71% 0 mm
02:27 13.5 °C 8.3 °C 1015.5 hPa NE 3.2 km/h 3.2 km/h 71% 0 mm
02:32 13.4 °C 8.5 °C 1015.5 hPa NE 3.2 km/h 3.2 km/h 72% 0 mm
02:37 13.4 °C 8.4 °C 1015.5 hPa NE 3.2 km/h 3.2 km/h 72% 0 mm
02:42 13.3 °C 8.4 °C 1015.5 hPa NNE 3.2 km/h 3.2 km/h 72% 0 mm
02:47 13.2 °C 8.3 °C 1015.5 hPa NE 1.6 km/h 3.2 km/h 72% 0 mm
02:52 13.2 °C 8.2 °C 1015.5 hPa NE 3.2 km/h 3.2 km/h 72% 0 mm
02:57 13.1 °C 8.2 °C 1015.5 hPa NNE 1.6 km/h 3.2 km/h 72% 0 mm
02:58 13.1 °C 8.2 °C 1015.5 hPa NNE 3.2 km/h 3.2 km/h 72% 0 mm
03:03 13.1 °C 8.1 °C 1015.8 hPa Calm   3.2 km/h 72% 0 mm
03:09 13.2 °C 8.2 °C 1015.8 hPa NE 3.2 km/h 6.4 km/h 72% 0 mm
03:14 13.2 °C 8.1 °C 1015.8 hPa NNE 3.2 km/h 4.8 km/h 71% 0 mm
03:19 13.2 °C 8.2 °C 1015.8 hPa North 3.2 km/h 4.8 km/h 72% 0 mm
03:24 13.1 °C 8.1 °C 1015.8 hPa NNE 1.6 km/h 4.8 km/h 72% 0 mm
03:29 12.8 °C 8.1 °C 1015.8 hPa NNE 1.6 km/h 3.2 km/h 73% 0 mm
03:34 12.8 °C 8.1 °C 1015.8 hPa NE 3.2 km/h 4.8 km/h 73% 0 mm
03:39 12.8 °C 8.1 °C 1015.8 hPa NNE 3.2 km/h 6.4 km/h 73% 0 mm
03:44 12.9 °C 8 °C 1015.8 hPa NE 3.2 km/h 4.8 km/h 72% 0 mm
03:49 13.1 °C 8 °C 1015.8 hPa NE 3.2 km/h 4.8 km/h 71% 0 mm
03:54 13.1 °C 8 °C 1015.8 hPa NNE 1.6 km/h 4.8 km/h 71% 0 mm
03:59 13 °C 7.9 °C 1015.8 hPa NE 3.2 km/h 4.8 km/h 71% 0 mm
04:04 12.9 °C 7.8 °C 1015.8 hPa NNE 3.2 km/h 6.4 km/h 71% 0 mm
04:09 12.9 °C 7.8 °C 1015.8 hPa NNE 4.8 km/h 6.4 km/h 71% 0 mm
04:14 12.8 °C 7.9 °C 1015.8 hPa NNE 4.8 km/h 4.8 km/h 72% 0 mm
04:19 12.8 °C 7.7 °C 1015.8 hPa NE 3.2 km/h 6.4 km/h 71% 0 mm
04:24 12.6 °C 7.7 °C 1015.8 hPa NNE 3.2 km/h 4.8 km/h 72% 0 mm
04:29 12.4 °C 7.7 °C 1015.8 hPa NNE 1.6 km/h 4.8 km/h 73% 0 mm
04:34 12.3 °C 7.6 °C 1016.1 hPa NE 1.6 km/h 3.2 km/h 73% 0 mm
04:39 12.2 °C 7.7 °C 1016.1 hPa NE 1.6 km/h 3.2 km/h 74% 0 mm
04:44 12.1 °C 7.6 °C 1016.1 hPa Calm   3.2 km/h 74% 0 mm
04:49 11.9 °C 7.4 °C 1016.1 hPa NE 1.6 km/h 3.2 km/h 74% 0 mm
04:54 11.9 °C 7.4 °C 1016.5 hPa NNE 1.6 km/h 1.6 km/h 74% 0 mm
04:59 11.8 °C 7.6 °C 1016.5 hPa NNE 1.6 km/h 3.2 km/h 75% 0 mm
05:04 11.8 °C 7.3 °C 1016.1 hPa North 1.6 km/h 4.8 km/h 74% 0 mm
05:09 11.9 °C 7.4 °C 1016.1 hPa NNE 1.6 km/h 3.2 km/h 74% 0 mm
05:14 11.9 °C 7.4 °C 1016.1 hPa NNE 4.8 km/h 4.8 km/h 74% 0 mm
05:19 12 °C 7.5 °C 1016.1 hPa NE 4.8 km/h 6.4 km/h 74% 0 mm
05:24 12.1 °C 7.4 °C 1016.1 hPa NE 3.2 km/h 8 km/h 73% 0 mm
05:29 12.1 °C 7.2 °C 1016.1 hPa NNE 4.8 km/h 8 km/h 72% 0 mm
05:34 12.1 °C 7.2 °C 1016.1 hPa NE 3.2 km/h 6.4 km/h 72% 0 mm
05:39 12 °C 7.3 °C 1016.1 hPa NE 4.8 km/h 9.7 km/h 73% 0 mm
05:44 11.9 °C 7.2 °C 1016.1 hPa NNE 8 km/h 8 km/h 73% 0 mm
05:49 12.1 °C 7.2 °C 1016.1 hPa NE 4.8 km/h 9.7 km/h 72% 0 mm
05:55 12.1 °C 7.2 °C 1016.1 hPa NE 3.2 km/h 6.4 km/h 72% 0 mm
06:00 12.1 °C 7.2 °C 1016.1 hPa NNE 4.8 km/h 9.7 km/h 72% 0 mm
06:05 11.9 °C 7.1 °C 1015.8 hPa NNE 3.2 km/h 8 km/h 72% 0 mm
06:10 12 °C 7.1 °C 1016.1 hPa North 4.8 km/h 6.4 km/h 72% 0 mm
06:15 11.9 °C 7.1 °C 1016.1 hPa NE 4.8 km/h 8 km/h 72% 0 mm
06:20 11.9 °C 7 °C 1016.1 hPa NE 6.4 km/h 11.3 km/h 72% 0 mm
06:25 11.9 °C 7 °C 1016.1 hPa NE 4.8 km/h 9.7 km/h 72% 0 mm
06:30 11.8 °C 7.1 °C 1016.1 hPa East 3.2 km/h 4.8 km/h 73% 0 mm
06:35 11.7 °C 7 °C 1016.1 hPa ENE 3.2 km/h 6.4 km/h 73% 0 mm
06:40 11.6 °C 6.9 °C 1016.1 hPa NNE 4.8 km/h 6.4 km/h 73% 0 mm
06:45 11.6 °C 6.9 °C 1016.1 hPa NE 3.2 km/h 6.4 km/h 73% 0 mm
06:46 11.6 °C 6.9 °C 1016.1 hPa NE 1.6 km/h 6.4 km/h 73% 0 mm
06:51 11.5 °C 7.1 °C 1016.5 hPa NE 4.8 km/h 8 km/h 74% 0 mm
06:56 11.4 °C 7 °C 1016.8 hPa NE 3.2 km/h 4.8 km/h 74% 0 mm
07:01 11.4 °C 6.9 °C 1016.8 hPa NE 1.6 km/h 3.2 km/h 74% 0 mm
07:06 11.3 °C 6.9 °C 1016.8 hPa NE 4.8 km/h 4.8 km/h 74% 0 mm
07:11 11.3 °C 6.8 °C 1016.8 hPa NE 1.6 km/h 4.8 km/h 74% 0 mm
07:16 11.3 °C 6.8 °C 1017.2 hPa ENE 3.2 km/h 4.8 km/h 74% 0 mm
07:21 11.4 °C 7 °C 1017.5 hPa Calm   1.6 km/h 74% 0 mm
07:26 11.6 °C 7.1 °C 1017.5 hPa East 1.6 km/h 1.6 km/h 74% 0 mm
07:31 11.7 °C 7 °C 1017.5 hPa ENE 1.6 km/h 3.2 km/h 73% 0 mm
07:36 12.1 °C 7.2 °C 1017.5 hPa NE 1.6 km/h 4.8 km/h 72% 0 mm
07:41 12.6 °C 7.2 °C 1017.8 hPa NE 3.2 km/h 6.4 km/h 70% 0 mm
07:46 12.8 °C 7.5 °C 1017.8 hPa NE 1.6 km/h 3.2 km/h 70% 0 mm
07:51 13.1 °C 7.7 °C 1017.8 hPa ENE 6.4 km/h 6.4 km/h 70% 0 mm
07:56 13.2 °C 7.8 °C 1017.8 hPa East 3.2 km/h 6.4 km/h 70% 0 mm
08:01 13.4 °C 8.1 °C 1017.5 hPa NE 4.8 km/h 6.4 km/h 70% 0 mm
08:06 13.5 °C 7.9 °C 1017.5 hPa East 6.4 km/h 6.4 km/h 69% 0 mm
08:11 13.7 °C 7.9 °C 1017.5 hPa NE 3.2 km/h 8 km/h 68% 0 mm
08:16 13.9 °C 8.3 °C 1017.5 hPa NE 3.2 km/h 6.4 km/h 69% 0 mm
08:21 14.1 °C 8.3 °C 1017.5 hPa East 4.8 km/h 8 km/h 68% 0 mm
08:26 14.3 °C 8.3 °C 1017.5 hPa NE 6.4 km/h 9.7 km/h 67% 0 mm
08:31 14.4 °C 8.6 °C 1017.5 hPa NNE 6.4 km/h 11.3 km/h 68% 0 mm
08:36 14.4 °C 8.6 °C 1017.5 hPa NE 8 km/h 8 km/h 68% 0 mm
08:41 14.7 °C 8.4 °C 1017.5 hPa NE 6.4 km/h 8 km/h 66% 0 mm
08:46 14.9 °C 8.7 °C 1017.5 hPa East 6.4 km/h 8 km/h 66% 0 mm
08:51 15.2 °C 8.6 °C 1017.8 hPa ENE 6.4 km/h 9.7 km/h 65% 0 mm
08:56 15.3 °C 9 °C 1017.8 hPa East 3.2 km/h 9.7 km/h 66% 0 mm
09:01 15.6 °C 8.8 °C 1017.8 hPa ENE 4.8 km/h 9.7 km/h 64% 0 mm
09:07 15.8 °C 8.8 °C 1017.8 hPa East 6.4 km/h 8 km/h 63% 0 mm
09:12 16.1 °C 9.3 °C 1018.2 hPa East 6.4 km/h 9.7 km/h 64% 0 mm
09:17 16.3 °C 9.3 °C 1018.2 hPa ENE 8 km/h 9.7 km/h 63% 0 mm
09:22 16.4 °C 8.7 °C 1017.8 hPa ENE 6.4 km/h 14.5 km/h 60% 0 mm
09:27 16.6 °C 9.3 °C 1017.8 hPa ESE 4.8 km/h 11.3 km/h 62% 0 mm
09:32 16.8 °C 9.4 °C 1018.2 hPa ENE 6.4 km/h 12.9 km/h 62% 0 mm
09:37 16.9 °C 10.1 °C 1017.8 hPa East 6.4 km/h 9.7 km/h 64% 0 mm
09:42 17 °C 9.2 °C 1017.8 hPa ENE 6.4 km/h 12.9 km/h 60% 0 mm
09:47 17.2 °C 9.7 °C 1017.8 hPa NE 4.8 km/h 8 km/h 61% 0 mm
09:52 17.3 °C 9.3 °C 1017.8 hPa NE 4.8 km/h 11.3 km/h 59% 0 mm
09:57 17.5 °C 9.7 °C 1017.8 hPa ENE 6.4 km/h 9.7 km/h 60% 0 mm
10:02 17.7 °C 10.3 °C 1018.2 hPa East 8 km/h 12.9 km/h 62% 0 mm
10:07 17.8 °C 9.2 °C 1018.2 hPa ESE 8 km/h 16.1 km/h 57% 0 mm
10:12 18.1 °C 8.9 °C 1018.2 hPa ENE 9.7 km/h 14.5 km/h 55% 0 mm
10:17 18.3 °C 8.9 °C 1018.2 hPa East 9.7 km/h 14.5 km/h 54% 0 mm
10:22 18.2 °C 8.4 °C 1018.2 hPa East 9.7 km/h 16.1 km/h 53% 0 mm
10:27 18.3 °C 8.6 °C 1018.2 hPa East 11.3 km/h 12.9 km/h 53% 0 mm
10:32 18.4 °C 9.2 °C 1018.5 hPa East 4.8 km/h 9.7 km/h 55% 0 mm
10:37 18.8 °C 9.3 °C 1018.5 hPa East 11.3 km/h 11.3 km/h 54% 0 mm
10:42 19 °C 9.2 °C 1018.5 hPa NE 8 km/h 12.9 km/h 53% 0 mm
10:47 19.1 °C 8.7 °C 1018.5 hPa SE 11.3 km/h 14.5 km/h 51% 0 mm
10:52 19 °C 8.3 °C 1018.5 hPa East 11.3 km/h 17.7 km/h 50% 0 mm
10:57 19.1 °C 8.2 °C 1018.5 hPa ESE 9.7 km/h 14.5 km/h 49% 0 mm
11:02 19.3 °C 8.3 °C 1018.5 hPa ESE 11.3 km/h 16.1 km/h 49% 0 mm
11:07 19.4 °C 8.1 °C 1018.5 hPa ESE 6.4 km/h 12.9 km/h 48% 0 mm
11:12 19.4 °C 8.1 °C 1018.5 hPa East 6.4 km/h 16.1 km/h 48% 0 mm
11:17 19.8 °C 9.7 °C 1018.5 hPa NE 6.4 km/h 12.9 km/h 52% 0 mm
11:22 19.9 °C 8.6 °C 1018.5 hPa NNE 11.3 km/h 16.1 km/h 48% 0 mm
11:27 19.9 °C 8.3 °C 1018.5 hPa NE 8 km/h 16.1 km/h 47% 0 mm
11:32 19.9 °C 8.3 °C 1018.5 hPa East 4.8 km/h 14.5 km/h 47% 0 mm
11:37 20.1 °C 8.4 °C 1018.5 hPa ENE 4.8 km/h 14.5 km/h 47% 0 mm
11:42 20.1 °C 7.8 °C 1018.5 hPa East 6.4 km/h 9.7 km/h 45% 0 mm
11:47 20.2 °C 7.9 °C 1018.5 hPa East 8 km/h 17.7 km/h 45% 0 mm
11:52 20.4 °C 8.1 °C 1018.5 hPa ENE 9.7 km/h 14.5 km/h 45% 0 mm
11:57 20.4 °C 8.1 °C 1018.5 hPa ESE 6.4 km/h 11.3 km/h 45% 0 mm
12:02 20.6 °C 7.9 °C 1018.5 hPa NNE 4.8 km/h 9.7 km/h 44% 0 mm
12:07 20.7 °C 8.3 °C 1018.5 hPa ESE 9.7 km/h 14.5 km/h 45% 0 mm
12:12 20.7 °C 8.1 °C 1018.5 hPa ENE 16.1 km/h 16.1 km/h 44% 0 mm
12:17 20.8 °C 7.1 °C 1018.5 hPa SE 12.9 km/h 17.7 km/h 41% 0 mm
12:22 20.8 °C 7.1 °C 1018.5 hPa ENE 9.7 km/h 16.1 km/h 41% 0 mm
12:27 20.8 °C 7.4 °C 1018.5 hPa SE 14.5 km/h 17.7 km/h 42% 0 mm
12:33 20.9 °C 7.9 °C 1018.5 hPa ESE 11.3 km/h 12.9 km/h 43% 0 mm
12:38 20.9 °C 8.2 °C 1018.5 hPa ESE 11.3 km/h 12.9 km/h 44% 0 mm
12:43 21.1 °C 8.1 °C 1018.5 hPa ENE 6.4 km/h 14.5 km/h 43% 0 mm
12:48 21.1 °C 7.7 °C 1018.5 hPa NNE 11.3 km/h 14.5 km/h 42% 0 mm
12:53 21.2 °C 8.5 °C 1018.5 hPa ESE 14.5 km/h 14.5 km/h 44% 0 mm
12:58 21.3 °C 8.9 °C 1018.5 hPa SE 11.3 km/h 20.9 km/h 45% 0 mm
13:03 21.4 °C 7.6 °C 1018.5 hPa East 8 km/h 22.5 km/h 41% 0 mm
13:08 21.4 °C 7.6 °C 1018.5 hPa SE 8 km/h 11.3 km/h 41% 0 mm
13:13 21.7 °C 8.2 °C 1018.5 hPa SSE 6.4 km/h 14.5 km/h 42% 0 mm
13:18 22.1 °C 9.9 °C 1018.5 hPa ENE 8 km/h 9.7 km/h 46% 0 mm
13:23 21.8 °C 9 °C 1018.5 hPa SE 9.7 km/h 12.9 km/h 44% 0 mm
13:28 21.7 °C 8.6 °C 1018.5 hPa ESE 1.6 km/h 11.3 km/h 43% 0 mm
13:33 22 °C 8.8 °C 1018.5 hPa East 3.2 km/h 11.3 km/h 43% 0 mm
13:38 22.1 °C 8.6 °C 1018.5 hPa South 8 km/h 14.5 km/h 42% 0 mm
13:43 21.9 °C 7.4 °C 1018.5 hPa ESE 11.3 km/h 16.1 km/h 39% 0 mm
13:48 21.9 °C 8.8 °C 1018.5 hPa SSE 11.3 km/h 16.1 km/h 43% 0 mm
13:53 22 °C 8.5 °C 1018.5 hPa SE 8 km/h 12.9 km/h 42% 0 mm
13:58 22.1 °C 8.6 °C 1018.8 hPa SSW 3.2 km/h 8 km/h 42% 0 mm
14:03 22.3 °C 9.4 °C 1018.8 hPa ESE 4.8 km/h 4.8 km/h 44% 0 mm
14:08 22.4 °C 8.2 °C 1018.5 hPa SE 6.4 km/h 12.9 km/h 40% 0 mm
14:13 22.6 °C 7.9 °C 1018.8 hPa ESE 12.9 km/h 16.1 km/h 39% 0 mm
14:18 22.4 °C 7.4 °C 1018.8 hPa SE 8 km/h 14.5 km/h 38% 0 mm
14:23 22.5 °C 7.9 °C 1018.8 hPa SW 3.2 km/h 6.4 km/h 39% 0 mm
14:28 22.8 °C 7 °C 1018.8 hPa East 9.7 km/h 17.7 km/h 36% 0 mm
14:33 22.7 °C 6.8 °C 1018.8 hPa SE 14.5 km/h 16.1 km/h 36% 0 mm
14:38 22.8 °C 8.1 °C 1018.8 hPa SE 9.7 km/h 11.3 km/h 39% 0 mm
14:44 22.7 °C 8.8 °C 1018.8 hPa SE 3.2 km/h 14.5 km/h 41% 0 mm
14:49 22.9 °C 7.9 °C 1018.5 hPa NW 3.2 km/h 4.8 km/h 38% 0 mm
14:54 23.3 °C 7.8 °C 1018.5 hPa West 3.2 km/h 9.7 km/h 37% 0 mm
14:59 23.4 °C 7.6 °C 1018.5 hPa ESE 6.4 km/h 11.3 km/h 36% 0 mm
15:04 23.6 °C 7.6 °C 1018.5 hPa East 8 km/h 12.9 km/h 36% 0 mm
15:09 23.4 °C 6.7 °C 1018.5 hPa East 4.8 km/h 8 km/h 34% 0 mm
15:14 23.3 °C 7.4 °C 1018.5 hPa East 4.8 km/h 12.9 km/h 36% 0 mm
15:19 23.3 °C 7.4 °C 1018.5 hPa NNE 4.8 km/h 14.5 km/h 36% 0 mm
15:24 23.3 °C 7 °C 1018.5 hPa ESE 1.6 km/h 11.3 km/h 35% 0 mm
15:29 23.3 °C 8.2 °C 1018.5 hPa SSW 6.4 km/h 6.4 km/h 38% 0 mm
15:34 23.4 °C 7.9 °C 1018.5 hPa ESE 9.7 km/h 12.9 km/h 37% 0 mm
15:39 23.2 °C 8.1 °C 1018.5 hPa East 8 km/h 16.1 km/h 38% 0 mm
15:44 23.1 °C 7.2 °C 1018.5 hPa ENE 3.2 km/h 11.3 km/h 36% 0 mm
15:49 23.2 °C 7.3 °C 1018.2 hPa SE 6.4 km/h 8 km/h 36% 0 mm
15:54 23.2 °C 8.1 °C 1018.5 hPa ENE 3.2 km/h 11.3 km/h 38% 0 mm
15:59 23.2 °C 7.7 °C 1018.2 hPa NE 3.2 km/h 12.9 km/h 37% 0 mm
16:04 23.3 °C 7.4 °C 1018.2 hPa SSE 3.2 km/h 6.4 km/h 36% 0 mm
16:09 23.3 °C 7.8 °C 1018.2 hPa ESE 8 km/h 16.1 km/h 37% 0 mm
16:14 23.6 °C 8.8 °C 1017.8 hPa SE 8 km/h 11.3 km/h 39% 0 mm
16:19 23.7 °C 7.7 °C 1017.8 hPa SSE 8 km/h 16.1 km/h 36% 0 mm
16:24 23.6 °C 8.1 °C 1018.2 hPa SE 4.8 km/h 12.9 km/h 37% 0 mm
16:29 23.6 °C 8.8 °C 1017.8 hPa NE 9.7 km/h 9.7 km/h 39% 0 mm
16:34 23.4 °C 7.6 °C 1017.8 hPa Calm   8 km/h 36% 0 mm
16:39 23.8 °C 8.6 °C 1017.8 hPa East 4.8 km/h 6.4 km/h 38% 0 mm
16:44 23.9 °C 7.9 °C 1017.8 hPa East 6.4 km/h 12.9 km/h 36% 0 mm
16:49 23.8 °C 7.9 °C 1017.8 hPa NW 4.8 km/h 8 km/h 36% 0 mm
16:54 23.9 °C 7.9 °C 1017.8 hPa East 8 km/h 14.5 km/h 36% 0 mm
16:59 23.8 °C 7.4 °C 1017.8 hPa East 8 km/h 9.7 km/h 35% 0 mm
17:04 23.8 °C 7.4 °C 1017.8 hPa ESE 4.8 km/h 14.5 km/h 35% 0 mm
17:10 23.7 °C 7.3 °C 1017.8 hPa ESE 1.6 km/h 9.7 km/h 35% 0 mm
17:15 23.7 °C 8.2 °C 1017.8 hPa SE 9.7 km/h 16.1 km/h 37% 0 mm
17:20 23.7 °C 7.8 °C 1017.8 hPa ENE 4.8 km/h 14.5 km/h 36% 0 mm
17:25 23.8 °C 7.1 °C 1017.8 hPa SSE 3.2 km/h 6.4 km/h 34% 0 mm
17:30 23.9 °C 8.4 °C 1017.8 hPa ESE 1.6 km/h 6.4 km/h 37% 0 mm
17:35 23.9 °C 7.5 °C 1017.8 hPa East 8 km/h 9.7 km/h 35% 0 mm
17:40 23.7 °C 7.8 °C 1017.8 hPa ESE 6.4 km/h 11.3 km/h 36% 0 mm
17:45 23.7 °C 7.4 °C 1018.2 hPa South 6.4 km/h 9.7 km/h 35% 0 mm
17:50 23.7 °C 6.5 °C 1017.8 hPa Calm   4.8 km/h 33% 0 mm
17:55 23.7 °C 8.9 °C 1017.8 hPa ESE 1.6 km/h 8 km/h 39% 0 mm
18:00 23.6 °C 8.1 °C 1018.2 hPa SE 6.4 km/h 8 km/h 37% 0 mm
18:05 23.4 °C 6.7 °C 1017.8 hPa East 8 km/h 9.7 km/h 34% 0 mm
18:10 23.3 °C 6.9 °C 1017.8 hPa ESE 4.8 km/h 9.7 km/h 35% 0 mm
18:15 23.3 °C 7.4 °C 1017.8 hPa SE 3.2 km/h 8 km/h 36% 0 mm
18:20 23.3 °C 7.8 °C 1017.8 hPa SE 4.8 km/h 4.8 km/h 37% 0 mm
18:25 23.3 °C 7.8 °C 1017.8 hPa SE 6.4 km/h 8 km/h 37% 0 mm
18:30 23.2 °C 8.4 °C 1017.8 hPa SE 3.2 km/h 6.4 km/h 39% 0 mm
18:35 23.1 °C 8.1 °C 1017.8 hPa ESE 3.2 km/h 6.4 km/h 38% 0 mm
18:40 23.1 °C 8 °C 1017.5 hPa East 3.2 km/h 4.8 km/h 38% 0 mm
18:45 23 °C 8.3 °C 1017.8 hPa SE 1.6 km/h 4.8 km/h 39% 0 mm
18:50 22.9 °C 8.6 °C 1017.5 hPa SE 3.2 km/h 3.2 km/h 40% 0 mm
18:55 22.9 °C 8.9 °C 1017.8 hPa ENE 1.6 km/h 3.2 km/h 41% 0 mm
19:00 22.8 °C 8.6 °C 1017.8 hPa ESE 1.6 km/h 3.2 km/h 40% 0 mm
19:05 22.7 °C 8.8 °C 1017.8 hPa SE 1.6 km/h 3.2 km/h 41% 0 mm
19:10 22.6 °C 9.1 °C 1017.8 hPa SSE 3.2 km/h 3.2 km/h 42% 0 mm
19:16 22.4 °C 9.3 °C 1017.8 hPa Calm   1.6 km/h 43% 0 mm
19:21 22.3 °C 9.5 °C 1017.8 hPa Calm     44% 0 mm
19:25 22.3 °C 9.2 °C 1017.8 hPa Calm   1.6 km/h 43% 0 mm
19:31 22.3 °C 11.4 °C 1017.8 hPa SE 1.6 km/h 1.6 km/h 50% 0 mm
19:36 21.9 °C 13.5 °C 1017.8 hPa SE 1.6 km/h 1.6 km/h 59% 0 mm
19:41 21.4 °C 13.4 °C 1017.5 hPa Calm   1.6 km/h 60% 0 mm
19:46 21.2 °C 13.3 °C 1017.5 hPa Calm     61% 0 mm
19:51 20.8 °C 11.7 °C 1017.5 hPa SE 1.6 km/h 1.6 km/h 56% 0 mm
19:56 20.7 °C 10.8 °C 1017.5 hPa SE 1.6 km/h 1.6 km/h 53% 0 mm
20:01 20.6 °C 10.1 °C 1017.5 hPa SE 1.6 km/h 1.6 km/h 51% 0 mm
20:06 20.4 °C 9.3 °C 1017.5 hPa Calm   3.2 km/h 49% 0 mm
20:11 20.3 °C 10.4 °C 1017.5 hPa Calm     53% 0 mm
20:16 20.1 °C 10.5 °C 1017.5 hPa Calm     54% 0 mm
20:21 19.8 °C 11.8 °C 1017.5 hPa SSE 1.6 km/h 3.2 km/h 60% 0 mm
20:26 19.6 °C 12.1 °C 1017.8 hPa SSE 1.6 km/h 3.2 km/h 62% 0 mm
20:31 19.3 °C 11.3 °C 1017.8 hPa Calm   1.6 km/h 60% 0 mm
20:36 19.1 °C 11.2 °C 1017.8 hPa SSE 1.6 km/h 1.6 km/h 60% 0 mm
20:41 18.9 °C 11 °C 1017.8 hPa SSE 1.6 km/h 1.6 km/h 60% 0 mm
20:46 18.8 °C 11.6 °C 1017.8 hPa Calm   1.6 km/h 63% 0 mm
20:51 18.7 °C 10 °C 1017.8 hPa ESE 1.6 km/h 1.6 km/h 57% 0 mm
20:56 19.1 °C 10.1 °C 1017.8 hPa ESE 1.6 km/h 3.2 km/h 56% 0 mm
21:01 19.2 °C 10.7 °C 1017.8 hPa ESE 1.6 km/h 1.6 km/h 58% 0 mm
21:06 18.9 °C 11 °C 1017.8 hPa Calm     60% 0 mm
21:11 18.7 °C 10.5 °C 1017.8 hPa Calm     59% 0 mm
21:16 18.4 °C 10.6 °C 1017.8 hPa Calm   1.6 km/h 60% 0 mm
21:22 18.8 °C 9.9 °C 1017.8 hPa ENE 1.6 km/h 4.8 km/h 56% 0 mm
21:27 18.9 °C 10.2 °C 1017.8 hPa ENE 1.6 km/h 1.6 km/h 57% 0 mm
21:32 19 °C 9.8 °C 1017.8 hPa ENE 1.6 km/h 3.2 km/h 55% 0 mm
21:37 19.1 °C 10.1 °C 1017.8 hPa ENE 1.6 km/h 1.6 km/h 56% 0 mm
21:42 18.9 °C 9.7 °C 1017.8 hPa ENE 1.6 km/h 3.2 km/h 55% 0 mm
21:47 18.7 °C 10.2 °C 1017.8 hPa ENE 1.6 km/h 1.6 km/h 58% 0 mm
21:52 18.2 °C 10.8 °C 1018.2 hPa Calm     62% 0 mm
21:57 17.6 °C 10.7 °C 1018.2 hPa Calm     64% 0 mm
22:02 17.2 °C 10.8 °C 1018.2 hPa ENE 3.2 km/h 3.2 km/h 66% 0 mm
22:07 17.3 °C 10.7 °C 1018.2 hPa ENE 3.2 km/h 3.2 km/h 65% 0 mm
22:12 17.3 °C 11.2 °C 1018.2 hPa ENE 1.6 km/h 3.2 km/h 67% 0 mm
22:17 17.1 °C 11.4 °C 1018.5 hPa Calm   1.6 km/h 69% 0 mm
22:22 16.9 °C 12 °C 1018.5 hPa Calm     73% 0 mm
22:27 16.7 °C 12.2 °C 1018.5 hPa ENE 1.6 km/h 1.6 km/h 75% 0 mm
22:32 16.6 °C 12.3 °C 1018.5 hPa ENE 1.6 km/h 1.6 km/h 76% 0 mm
22:37 16.6 °C 12.2 °C 1018.5 hPa Calm     75% 0 mm
22:42 16.5 °C 12.1 °C 1018.5 hPa ENE 1.6 km/h 1.6 km/h 75% 0 mm
22:47 16.7 °C 12.1 °C 1018.8 hPa Calm   1.6 km/h 74% 0 mm
22:52 16.6 °C 12.2 °C 1018.8 hPa ENE 1.6 km/h 1.6 km/h 75% 0 mm
22:57 16.7 °C 12 °C 1018.8 hPa ENE 3.2 km/h 3.2 km/h 74% 0 mm
23:02 16.9 °C 12.1 °C 1018.5 hPa NNE 4.8 km/h 4.8 km/h 73% 0 mm
23:07 17.1 °C 12.2 °C 1018.8 hPa NNE 3.2 km/h 4.8 km/h 73% 0 mm
23:12 17.2 °C 11.9 °C 1018.5 hPa NNE 3.2 km/h 4.8 km/h 71% 0 mm
23:17 17.3 °C 12.1 °C 1018.8 hPa NNE 1.6 km/h 3.2 km/h 71% 0 mm
23:22 17.4 °C 11.9 °C 1018.8 hPa Calm   1.6 km/h 70% 0 mm
23:27 17.3 °C 12.2 °C 1018.8 hPa Calm     72% 0 mm
23:32 17.1 °C 12.2 °C 1018.8 hPa Calm     73% 0 mm
23:37 16.8 °C 12.3 °C 1018.8 hPa Calm   1.6 km/h 75% 0 mm
23:42 16.6 °C 12.7 °C 1019.2 hPa Calm   1.6 km/h 78% 0 mm
23:47 16.3 °C 12.8 °C 1019.2 hPa NNE 1.6 km/h 1.6 km/h 80% 0 mm
23:52 16.2 °C 12.7 °C 1019.2 hPa NNE 1.6 km/h 1.6 km/h 80% 0 mm
23:57 16.2 °C 12.7 °C 1019.2 hPa Calm   1.6 km/h 80% 0 mm
Compliments of Weather Underground